[[[{"header":{"parameterUnit":"kt","parameterCategory":2,"dx":1,"dy":1,"la1":30.253999710083008,"la2":30.299108505249023,"lo1":-89.0895004272461,"lo2":-89.04439544677734,"nx":28,"ny":28,"refTime":"2022-09-24T21:00:00:Z","depth":0,"parameterNumber":1,"parameterNumberName":"U-component_of_WINDS"},"data":[2.4837,2.4898,2.4925,2.5007,2.5045,2.5106,2.5137,2.5179,2.522,2.5297,2.5346,2.538,2.5433,2.5499,2.5554,2.5569,2.559,2.5592,2.5608,2.5577,2.5575,2.5573,2.556,2.5596,2.5596,2.5637,2.5637,2.5637,2.4811,2.4849,2.49,2.4968,2.5012,2.5027,2.5083,2.5119,2.5174,2.5225,2.5275,2.5346,2.5405,2.5459,2.5521,2.5551,2.5562,2.5566,2.5564,2.5573,2.554,2.5526,2.5556,2.5556,2.5556,2.5556,2.5556,2.5556,2.4769,2.4804,2.4861,2.4918,2.496,2.5005,2.5044,2.5085,2.5137,2.5204,2.5228,2.5291,2.5348,2.5438,2.5475,2.5525,2.5527,2.554,2.5544,2.5546,2.5545,2.5481,2.5538,2.5538,2.5538,2.5538,2.5538,0,2.4747,2.4767,2.4819,2.4878,2.4921,2.497,2.502,2.5045,2.5099,2.5139,2.52,2.524,2.532,2.5381,2.5446,2.5483,2.5505,2.551,2.5519,2.5509,2.549,2.55,2.5446,2.5508,2.5508,2.5508,2.5508,2.5508,2.4707,2.4746,2.4819,2.4851,2.4885,2.4937,2.4974,2.5019,2.5056,2.5125,2.5155,2.5217,2.5269,2.5364,2.5413,2.5474,2.5485,2.5505,2.5494,2.5482,2.5485,2.5483,2.5487,2.5507,2.5507,2.5507,2.5507,0,2.4682,2.4727,2.4795,2.4865,2.4884,2.4922,2.4982,2.502,2.5057,2.5114,2.5131,2.5189,2.5249,2.5296,2.5375,2.5397,2.5462,2.5472,2.5442,2.5447,2.547,2.5467,2.5537,2.5549,2.5512,2.5512,2.5512,0,2.4666,2.4715,2.4779,2.4817,2.4873,2.4916,2.4971,2.5008,2.5058,2.5104,2.5135,2.5178,2.5232,2.5281,2.5315,2.5377,2.5392,2.5413,2.5422,2.5411,2.5408,2.5432,2.5431,2.544,2.5439,2.5439,2.5439,0,2.4622,2.4714,2.4775,2.4804,2.4884,2.4912,2.4946,2.5003,2.504,2.5094,2.5119,2.5179,2.5213,2.526,2.5303,2.5293,2.5379,2.5376,2.5401,2.54,2.5419,2.5417,2.5467,2.5438,2.5438,2.5438,2.5438,0,2.4616,2.4669,2.4751,2.4818,2.4841,2.4882,2.4944,2.499,2.5048,2.5072,2.5116,2.5142,2.52,2.5193,2.5273,2.5249,2.528,2.5306,2.5309,2.5317,2.5308,2.533,2.5372,2.5379,2.5324,2.5323,2.5322,0,2.4554,2.4649,2.4687,2.4764,2.4815,2.4846,2.4892,2.4943,2.4978,2.5027,2.5067,2.5123,2.5127,2.5151,2.5185,2.5229,2.5261,2.5226,2.5297,2.5299,2.528,2.532,2.5314,2.5358,2.5311,2.5312,2.5313,0,2.4511,2.4607,2.4619,2.4653,2.4726,2.4769,2.4822,2.4887,2.4917,2.4971,2.5017,2.5097,2.5103,2.5143,2.5172,2.5205,2.524,2.5208,2.521,2.5212,2.5309,2.5304,2.5311,2.5253,2.5254,2.5255,2.5304,0,2.4492,2.4546,2.4578,2.4653,2.4693,2.4744,2.4794,2.483,2.4853,2.4889,2.4958,2.5014,2.5081,2.5102,2.5125,2.5185,2.5182,2.5189,2.5186,2.5212,2.5229,2.5236,2.5156,2.5156,2.5157,2.5157,0,0,2.4422,2.4499,2.454,2.4593,2.463,2.4662,2.4712,2.4752,2.4832,2.4857,2.4855,2.4976,2.5021,2.51,2.5112,2.514,2.5155,2.5145,2.5199,2.5204,2.5208,2.5226,2.5232,2.5157,2.5157,2.5157,2.5157,0,2.4425,2.4468,2.4517,2.456,2.4624,2.466,2.4672,2.4742,2.4768,2.4836,2.4863,2.4911,2.5007,2.5051,2.5087,2.5136,2.5154,2.5153,2.5162,2.5199,2.5203,2.5207,2.5225,2.5231,2.5158,2.5158,2.5158,0,2.4392,2.4443,2.4472,2.4556,2.4599,2.4651,2.4659,2.4713,2.4752,2.4787,2.4854,2.4892,2.4956,2.5024,2.5057,2.5057,2.5151,2.513,2.5131,2.5136,2.5174,2.5179,2.5184,2.5125,2.5124,2.5124,0,0,2.4388,2.4438,2.4508,2.456,2.4585,2.464,2.4673,2.47,2.4755,2.4778,2.4827,2.4881,2.4938,2.4974,2.503,2.5097,2.5115,2.5124,2.5126,2.5127,2.5132,2.5171,2.5176,2.5123,2.5123,2.5123,0,0,2.4387,2.4469,2.4482,2.4549,2.4601,2.4674,2.4705,2.4723,2.4778,2.4778,2.4827,2.4844,2.4908,2.4945,2.4922,2.503,2.5026,2.5032,2.5003,2.5006,2.5008,2.4998,2.494,0,0,0,0,0,2.4416,2.4459,2.4469,2.4488,2.4596,2.4667,2.4682,2.4722,2.4718,2.4741,2.4785,2.4803,2.4943,2.4924,2.4942,2.4968,2.5107,2.511,2.5112,2.5091,2.5094,2.5096,0,0,0,0,0,0,2.4424,2.4446,2.4469,2.4542,2.4567,2.4666,2.4668,2.468,2.4716,2.4718,2.4794,2.4805,2.4842,2.4917,2.4933,2.4956,2.4935,2.5108,2.511,2.5112,2.5092,2.5094,2.5096,0,0,0,0,0,2.443,2.4448,2.461,2.4542,2.4563,2.4627,2.4667,2.4677,2.4706,2.4774,2.4786,2.4733,2.4842,2.4858,2.4927,2.4948,2.4924,2.493,2.5109,2.5111,2.5113,2.5093,0,0,0,0,0,0,2.4435,2.4459,2.4615,2.4623,2.4529,2.4623,2.4639,2.4674,2.476,2.4772,2.4716,2.4716,2.4842,2.4855,2.4867,2.4943,2.4915,2.4921,2.4925,2.5111,2.5112,2.5114,0,0,0,0,0,0,2.4449,2.4465,2.4619,2.46,2.4607,2.4618,2.4632,2.4697,2.4761,2.4697,2.47,2.4715,2.4824,2.4853,2.4862,2.4962,2.4908,2.4914,2.4918,2.492,2.5112,2.5113,0,0,0,0,0,0,2.4457,2.4471,2.4599,2.4603,2.4609,2.4703,2.4676,2.4785,2.4743,2.4693,2.474,2.4739,2.4821,2.4832,2.4859,2.4954,2.496,2.4908,2.4912,2.4915,2.4917,0,0,0,0,0,0,0,2.4463,2.436,2.4567,2.4606,2.4611,2.4698,2.47,2.4703,2.4742,2.4741,2.474,2.474,2.4875,2.4882,2.4888,2.4947,0,0,2.4908,2.491,0,0,0,0,0,0,0,0,2.4355,2.4359,2.4567,2.4569,2.4571,2.4698,2.47,2.4702,2.4742,2.4741,2.4741,2.474,2.4877,2.4882,2.4887,0,0,0,0,0,0,0,0,0,0,0,0,0,0,0,2.4568,2.4569,0,2.4699,2.47,2.4702,2.4742,2.4741,2.4741,2.474,2.4879,2.4883,2.4887,0,0,0,0,0,0,0,0,0,0,0,0,0,0,0,0,0,0,0,0,0,0,0,0,0,0,0,0,0,0,0,0,0,0,0,0,0,0,0,0,0,0,0,0,0,0,0,0,0,0,0,0,0,0,0,0,0,0,0,0,0,0,0,0,0,0,0,0,0]}],[{"header":{"parameterUnit":"kt","parameterCategory":2,"dx":1,"dy":1,"la1":30.253999710083008,"la2":30.299108505249023,"lo1":-89.0895004272461,"lo2":-89.04439544677734,"nx":28,"ny":28,"refTime":"2022-09-24T21:00:00:Z","depth":0,"parameterNumber":2,"parameterNumberName":"V-component_of_WINDS"},"data":[1.6835,1.6851,1.6855,1.6874,1.6881,1.6894,1.69,1.6907,1.6915,1.693,1.6939,1.6945,1.6953,1.6964,1.6974,1.6976,1.6979,1.6979,1.6982,1.6977,1.6976,1.6976,1.6973,1.698,1.698,1.6985,1.6985,1.6986,1.6823,1.6831,1.6843,1.6858,1.6868,1.6869,1.6881,1.6889,1.6901,1.6911,1.6922,1.6935,1.6947,1.6956,1.6967,1.6973,1.6974,1.6975,1.6975,1.6975,1.6971,1.6967,1.6974,1.6974,1.6974,1.6974,1.6974,1.6974,1.6803,1.6813,1.6826,1.684,1.6849,1.6859,1.6869,1.6877,1.6889,1.6904,1.6908,1.6922,1.6933,1.6951,1.6958,1.6968,1.6968,1.6971,1.6971,1.6971,1.697,1.6956,1.697,1.697,1.697,1.697,1.697,0,1.679,1.6793,1.6807,1.6822,1.6833,1.6845,1.6857,1.6863,1.6875,1.6884,1.6899,1.6908,1.6925,1.6938,1.6952,1.696,1.6963,1.6965,1.6967,1.6964,1.6957,1.6958,1.6948,1.6965,1.6965,1.6965,1.6965,1.6965,1.6767,1.678,1.6798,1.6807,1.6816,1.6831,1.6841,1.685,1.686,1.6876,1.6884,1.6899,1.6911,1.6933,1.6944,1.6957,1.6959,1.6964,1.6961,1.6956,1.6956,1.6955,1.6955,1.6965,1.6965,1.6965,1.6965,0,1.6753,1.6764,1.6787,1.6805,1.6809,1.6822,1.6837,1.6848,1.6856,1.6872,1.6876,1.689,1.6904,1.6915,1.6934,1.6939,1.6954,1.6957,1.6948,1.6949,1.6953,1.6951,1.697,1.6971,1.6965,1.6966,1.6966,0,1.6737,1.6755,1.677,1.6784,1.6802,1.6813,1.6831,1.6841,1.6854,1.6867,1.6873,1.6885,1.6898,1.691,1.6918,1.6933,1.6938,1.6941,1.6943,1.694,1.6939,1.6945,1.6944,1.695,1.695,1.695,1.6949,0,1.6713,1.6745,1.6766,1.6775,1.6798,1.6808,1.6817,1.6834,1.6844,1.686,1.6866,1.6883,1.6892,1.6904,1.6914,1.6911,1.6934,1.6932,1.6937,1.6937,1.6943,1.6942,1.6955,1.6949,1.6949,1.6949,1.6949,0,1.6703,1.672,1.6752,1.677,1.6778,1.6793,1.6811,1.6827,1.6844,1.685,1.6863,1.687,1.6887,1.6883,1.6906,1.6899,1.6906,1.6913,1.6913,1.6915,1.6911,1.6915,1.6928,1.6929,1.6915,1.6915,1.6915,0,1.6669,1.6706,1.6717,1.6747,1.6766,1.6772,1.6789,1.6805,1.6815,1.6831,1.6842,1.6861,1.6862,1.6869,1.6879,1.6891,1.69,1.6891,1.6909,1.691,1.6902,1.6915,1.6913,1.6924,1.6912,1.6912,1.6912,0,1.6645,1.6677,1.6683,1.6693,1.6719,1.6736,1.6756,1.6779,1.6788,1.6808,1.6823,1.6852,1.6852,1.6866,1.6875,1.6885,1.6894,1.6885,1.6885,1.6884,1.6913,1.691,1.6912,1.6897,1.6898,1.6898,1.691,0,1.662,1.6643,1.6659,1.6687,1.6703,1.6725,1.6741,1.6755,1.6761,1.6774,1.6798,1.6818,1.6842,1.685,1.6858,1.6878,1.6876,1.6878,1.6876,1.6885,1.6889,1.6891,1.6868,1.6868,1.6868,1.6868,0,0,1.6584,1.6618,1.6634,1.6656,1.667,1.668,1.6702,1.6717,1.6749,1.6757,1.6756,1.6801,1.6818,1.6846,1.6851,1.6862,1.6866,1.6864,1.6881,1.6883,1.6884,1.6888,1.689,1.6869,1.6869,1.6869,1.6869,0,1.6579,1.6599,1.6622,1.6639,1.6665,1.6678,1.6683,1.6711,1.6721,1.6748,1.6756,1.6773,1.6812,1.6827,1.684,1.686,1.6865,1.6867,1.6871,1.6881,1.6882,1.6884,1.6888,1.6889,1.6869,1.6869,1.6869,0,1.6556,1.6578,1.6592,1.663,1.6647,1.6669,1.667,1.6695,1.671,1.6722,1.675,1.6764,1.6788,1.6815,1.6828,1.6828,1.6864,1.6858,1.6858,1.686,1.6871,1.6872,1.6874,1.6855,1.6855,1.6855,0,0,1.6549,1.6573,1.6602,1.663,1.6641,1.6662,1.6677,1.6687,1.6709,1.6719,1.6738,1.6759,1.678,1.6795,1.6817,1.6845,1.685,1.6856,1.6856,1.6857,1.6859,1.687,1.6871,1.6854,1.6854,1.6854,0,0,1.6547,1.6581,1.6585,1.6621,1.6642,1.6673,1.6689,1.6694,1.6717,1.6717,1.6735,1.6742,1.6768,1.6783,1.6774,1.6816,1.6814,1.6817,1.6806,1.6807,1.6808,1.6804,1.6779,0,0,0,0,0,1.6552,1.6576,1.658,1.6589,1.6639,1.667,1.6677,1.6693,1.669,1.6701,1.6717,1.6724,1.678,1.6773,1.6781,1.6791,1.6848,1.6849,1.685,1.6844,1.6845,1.6845,0,0,0,0,0,0,1.6555,1.6566,1.6579,1.6611,1.6622,1.667,1.6668,1.6673,1.6689,1.669,1.672,1.6725,1.6739,1.677,1.6777,1.6786,1.6777,1.6849,1.685,1.6851,1.6844,1.6845,1.6845,0,0,0,0,0,1.6558,1.6567,1.6644,1.661,1.662,1.6647,1.6667,1.6671,1.6684,1.6712,1.6716,1.6695,1.6739,1.6746,1.6775,1.6783,1.6773,1.6775,1.6849,1.685,1.6851,1.6844,0,0,0,0,0,0,1.6561,1.6571,1.6646,1.665,1.6604,1.6645,1.6652,1.667,1.6705,1.671,1.6687,1.6687,1.6739,1.6744,1.675,1.678,1.6769,1.6771,1.6773,1.685,1.6851,1.6851,0,0,0,0,0,0,1.6566,1.6574,1.6648,1.6638,1.6641,1.6643,1.6649,1.6677,1.6706,1.6679,1.668,1.6686,1.6731,1.6744,1.6748,1.6791,1.6766,1.6768,1.677,1.6771,1.685,1.6851,0,0,0,0,0,0,1.657,1.6576,1.6638,1.664,1.6642,1.6682,1.6668,1.6718,1.6698,1.6677,1.6697,1.6696,1.673,1.6734,1.6746,1.6788,1.679,1.6766,1.6768,1.6769,1.6769,0,0,0,0,0,0,0,1.6572,1.6525,1.6625,1.6641,1.6643,1.6682,1.6683,1.6684,1.6698,1.6697,1.6697,1.6696,1.6752,1.6754,1.6757,1.6785,0,0,1.6766,1.6767,0,0,0,0,0,0,0,0,1.6523,1.6525,1.6625,1.6626,1.6627,1.6682,1.6683,1.6684,1.6698,1.6697,1.6697,1.6697,1.6753,1.6755,1.6757,0,0,0,0,0,0,0,0,0,0,0,0,0,0,0,1.6626,1.6626,0,1.6682,1.6683,1.6684,1.6698,1.6697,1.6697,1.6697,1.6753,1.6755,1.6757,0,0,0,0,0,0,0,0,0,0,0,0,0,0,0,0,0,0,0,0,0,0,0,0,0,0,0,0,0,0,0,0,0,0,0,0,0,0,0,0,0,0,0,0,0,0,0,0,0,0,0,0,0,0,0,0,0,0,0,0,0,0,0,0,0,0,0,0,0]}]]]